KF4PPJ Weather Reports


Display with metric or nautical units.
time (UTC)temp
F
wind
direction
speed
MPH
gust
MPH
rain 1hr
in
rain 24hr
in
rain mn
in
humidity
%
barometer
mb
20260510182549 56 184 1.0 2.0 0.00 0.00 0.00 81 1022.0
20260510182044 56 245 5.0 7.0 0.00 0.00 0.00 81 1022.3
20260510181542 56 225 3.0 3.0 0.00 0.00 0.00 81 1022.5
20260510181038 56 197 6.0 8.0 0.00 0.00 0.00 80 1022.2
20260510180535 56 212 4.0 6.0 0.00 0.00 0.00 81 1021.9
20260510180033 56 230 3.0 6.0 0.00 0.00 0.00 81 1021.8
20260510175527 56 217 2.0 2.0 0.00 0.00 0.00 82 1021.7
20260510175024 56 225 3.0 5.0 0.00 0.00 0.00 81 1021.8
20260510174522 56 185 3.0 5.0 0.00 0.00 0.00 82 1021.7
20260510174019 56 184 3.0 3.0 0.00 0.00 0.00 83 1021.8
20260510173514 55 150 0.0 2.0 0.00 0.00 0.00 85 1021.6
20260510173011 55 163 2.0 5.0 0.00 0.00 0.00 85 1022.1
20260510172507 55 162 5.0 6.0 0.00 0.00 0.00 85 1022.0
20260510172004 55 198 2.0 5.0 0.00 0.00 0.00 86 1022.2
20260510171500 55 197 3.0 5.0 0.00 0.00 0.00 86 1021.8
20260510170957 54 197 2.0 3.0 0.00 0.00 0.00 87 1021.8
20260510170454 54 180 3.0 5.0 0.00 0.00 0.00 87 1021.7
20260510165949 54 165 1.0 5.0 0.00 0.00 0.00 87 1021.8
20260510165440 54 199 3.0 6.0 0.00 0.00 0.00 87 1021.8
20260510164937 54 250 4.0 5.0 0.00 0.00 0.00 88 1022.0
20260510164434 54 195 3.0 5.0 0.00 0.00 0.00 87 1021.7
20260510163934 54 169 3.0 6.0 0.00 0.00 0.00 87 1021.6
20260510163430 55 155 3.0 6.0 0.00 0.00 0.00 85 1021.5
20260510162925 55 184 3.0 3.0 0.00 0.00 0.00 84 1021.8
20260510162423 55 166 1.0 2.0 0.00 0.00 0.00 86 1021.1
20260510161918 55 144 0.0 1.0 0.00 0.00 0.00 86 1020.7
20260510161415 55 144 0.0 1.0 0.00 0.00 0.00 87 1020.9
20260510160912 54 152 1.0 1.0 0.00 0.00 0.00 87 1020.8
20260510160409 54 157 1.0 2.0 0.00 0.00 0.00 87 1021.0
20260510155907 54 79 2.0 3.0 0.00 0.00 0.00 88 1020.8
20260510155404 54 170 1.0 2.0 0.00 0.00 0.00 88 1021.1
20260510154900 54 252 3.0 3.0 0.00 0.00 0.00 88 1020.7
20260510154357 54 179 1.0 1.0 0.00 0.00 0.00 89 1020.8
20260510153851 54 158 1.0 2.0 0.00 0.00 0.00 89 1021.0
20260510153347 54 175 3.0 3.0 0.00 0.00 0.00 89 1021.1
20260510152844 54 270 4.0 5.0 0.00 0.00 0.00 90 1020.9
20260510152341 54 153 0.0 2.0 0.00 0.00 0.00 90 1020.7
20260510151837 54 193 3.0 3.0 0.00 0.00 0.00 91 1020.5
20260510151335 54 206 1.0 2.0 0.00 0.00 0.00 92 1020.4
20260510150831 53 198 1.0 2.0 0.00 0.00 0.00 92 1020.4
20260510150327 54 168 0.0 2.0 0.00 0.00 0.00 94 1020.4
20260510145823 54 142 0.0 1.0 0.00 0.00 0.00 95 1020.5
20260510145320 53 142 0.0 0.0 0.00 0.00 0.00 96 1020.6
20260510144816 52 159 0.0 0.0 0.00 0.00 0.00 96 1020.9
20260510144313 52 156 1.0 2.0 0.00 0.00 0.00 96 1020.7
20260510143813 52 172 1.0 2.0 0.00 0.00 0.00 96 1021.1
20260510143310 51 181 0.0 1.0 0.00 0.00 0.00 97 1020.9
20260510142806 51 179 1.0 2.0 0.00 0.00 0.00 97 1020.9
20260510142306 51 177 1.0 1.0 0.00 0.00 0.00 97 1021.1
20260510141800 51 167 0.0 2.0 0.00 0.00 0.00 97 1020.8
20260510141258 51 152 0.0 0.0 0.00 0.00 0.00 97 1020.7
20260510140754 50 173 0.0 0.0 0.00 0.00 0.00 97 1020.4
20260510140250 50 165 0.0 0.0 0.00 0.00 0.00 97 1020.4
20260510135744 50 159 0.0 0.0 0.00 0.00 0.00 97 1019.9
20260510135239 49 166 0.0 0.0 0.00 0.00 0.00 97 1019.7
20260510134737 49 144 0.0 0.0 0.00 0.00 0.00 97 1019.4
20260510134234 49 140 0.0 0.0 0.00 0.00 0.00 97 1019.9
20260510133730 48 145 0.0 0.0 0.00 0.00 0.00 97 1020.1
20260510133226 48 145 0.0 0.0 0.00 0.00 0.00 97 1020.2
20260510132722 48 153 0.0 0.0 0.00 0.00 0.00 97 1020.2
20260510132220 48 153 0.0 0.0 0.00 0.00 0.00 97 1020.3
20260510131717 48 152 0.0 0.0 0.00 0.00 0.00 97 1020.5
20260510131215 47 153 0.0 0.0 0.00 0.00 0.00 97 1020.6
20260510130711 47 153 0.0 0.0 0.00 0.00 0.00 97 1020.9
20260510130208 47 158 0.0 0.0 0.00 0.00 0.00 97 1020.7
20260510125658 47 148 0.0 0.0 0.00 0.00 0.00 97 1020.6
20260510125154 47 156 0.0 0.0 0.00 0.00 0.00 97 1020.8
20260510124651 47 158 0.0 0.0 0.00 0.00 0.00 96 1020.9
20260510124148 47 161 0.0 0.0 0.00 0.00 0.00 96 1020.8
20260510123644 47 156 0.0 0.0 0.00 0.00 0.00 96 1020.5
20260510123140 47 150 0.0 0.0 0.00 0.00 0.00 96 1020.7
20260510122636 47 151 0.0 0.0 0.00 0.00 0.00 96 1020.5
20260510122132 48 151 0.0 0.0 0.00 0.00 0.00 96 1020.4
20260510121629 48 151 0.0 0.0 0.00 0.00 0.00 96 1020.4
20260510121126 48 139 0.0 0.0 0.00 0.00 0.00 96 1020.3
20260510120624 47 147 0.0 0.0 0.00 0.00 0.00 96 1020.2
20260510120119 47 151 0.0 0.0 0.00 0.00 0.00 96 1020.4
20260510115616 47 153 0.0 0.0 0.00 0.00 0.00 96 1020.4
20260510115114 48 161 0.0 0.0 0.00 0.00 0.00 96 1020.2
20260510114609 48 157 0.0 0.0 0.00 0.00 0.00 96 1020.0
20260510114106 48 144 0.0 0.0 0.00 0.00 0.00 96 1020.0
20260510113600 48 144 0.0 0.0 0.00 0.00 0.00 96 1020.2
20260510113059 48 135 0.0 0.0 0.00 0.00 0.00 96 1020.4
20260510112555 48 153 0.0 0.0 0.00 0.00 0.00 96 1020.3
20260510112052 48 150 0.0 0.0 0.00 0.00 0.00 96 1020.4
20260510111548 48 151 0.0 0.0 0.00 0.00 0.00 96 1020.3
20260510111044 48 151 0.0 0.0 0.00 0.00 0.00 96 1020.4
20260510110540 48 151 0.0 0.0 0.00 0.00 0.00 96 1020.1
20260510110037 48 151 0.0 0.0 0.00 0.00 0.00 95 1020.2
20260510105527 48 150 0.0 0.0 0.00 0.00 0.00 96 1020.2
20260510105022 48 152 0.0 0.0 0.00 0.00 0.00 95 1019.7
20260510104518 48 152 0.0 0.0 0.00 0.00 0.00 95 1019.9
20260510104014 48 156 0.0 0.0 0.00 0.00 0.00 95 1019.9
20260510103512 48 151 0.0 0.0 0.00 0.00 0.00 95 1019.7
20260510103009 48 149 0.0 0.0 0.00 0.00 0.00 95 1019.9
20260510102504 48 149 0.0 0.0 0.00 0.00 0.00 95 1019.8
20260510102001 48 149 0.0 0.0 0.00 0.00 0.00 95 1019.7
20260510101458 48 148 0.0 0.0 0.00 0.00 0.00 95 1019.7
20260510100956 48 149 0.0 0.0 0.00 0.00 0.00 95 1019.6
20260510100452 48 149 0.0 0.0 0.00 0.00 0.00 95 1019.6
20260510095948 48 149 0.0 0.0 0.00 0.00 0.00 95 1019.6
20260510095445 48 149 0.0 0.0 0.00 0.00 0.00 95 1019.3
20260510094943 48 147 0.0 0.0 0.00 0.00 0.00 95 1019.5
20260510094438 49 150 0.0 0.0 0.00 0.00 0.00 95 1019.3
20260510093934 49 150 0.0 0.0 0.00 0.00 0.00 94 1019.4
20260510093430 48 150 0.0 0.0 0.00 0.00 0.00 94 1019.3
20260510092927 48 150 0.0 0.0 0.00 0.00 0.00 94 1019.0
20260510092424 49 150 0.0 0.0 0.00 0.00 0.00 94 1019.3
20260510091919 48 150 0.0 0.0 0.00 0.00 0.00 94 1019.1
20260510091416 49 150 0.0 0.0 0.00 0.00 0.00 94 1019.1
20260510090913 49 150 0.0 0.0 0.00 0.00 0.00 94 1019.2
20260510090409 49 150 0.0 0.0 0.00 0.00 0.00 94 1019.0
20260510085905 49 150 0.0 0.0 0.00 0.00 0.00 93 1019.1
20260510085400 49 150 0.0 0.0 0.00 0.00 0.00 93 1019.1
20260510084856 49 150 0.0 0.0 0.00 0.00 0.00 93 1018.8
20260510084354 49 150 0.0 0.0 0.00 0.00 0.00 93 1018.8
20260510083850 50 150 0.0 0.0 0.00 0.00 0.00 93 1018.8
20260510083347 50 150 0.0 0.0 0.00 0.00 0.00 93 1019.0
20260510082842 50 150 0.0 0.0 0.00 0.00 0.00 93 1018.9
20260510082339 50 150 0.0 0.0 0.00 0.00 0.00 92 1018.8
20260510081837 50 150 0.0 0.0 0.00 0.00 0.00 92 1018.9
20260510081334 50 150 0.0 0.0 0.00 0.00 0.00 92 1019.1
20260510080830 50 150 0.0 0.0 0.00 0.00 0.00 92 1018.9
20260510080325 50 150 0.0 0.0 0.00 0.00 0.00 92 1018.8
20260510075823 50 150 0.0 0.0 0.00 0.00 0.00 92 1018.9
20260510075319 51 150 0.0 0.0 0.00 0.00 0.00 92 1018.9
20260510074816 51 150 0.0 0.0 0.00 0.00 0.00 92 1019.0
20260510074314 51 150 0.0 0.0 0.00 0.00 0.00 92 1019.0
20260510073809 51 150 0.0 0.0 0.00 0.00 0.00 92 1018.8
20260510073305 51 150 0.0 0.0 0.00 0.00 0.00 92 1018.8
20260510072801 51 149 0.0 0.0 0.00 0.00 0.00 92 1018.8
20260510072258 51 150 0.0 0.0 0.00 0.00 0.00 92 1019.0
20260510071754 51 150 0.0 0.0 0.00 0.00 0.00 92 1018.9
20260510071251 51 146 0.0 0.0 0.00 0.00 0.00 92 1018.7
20260510070751 51 148 0.0 0.0 0.00 0.00 0.00 92 1018.8
20260510070247 52 144 0.0 0.0 0.00 0.00 0.00 92 1019.0
20260510065746 52 152 0.0 0.0 0.00 0.00 0.00 92 1018.9
20260510065243 52 153 0.0 0.0 0.00 0.00 0.00 92 1018.9
20260510064740 52 150 0.0 0.0 0.00 0.00 0.00 92 1018.8
20260510064238 52 148 0.0 0.0 0.00 0.00 0.00 92 1019.1
20260510063733 52 148 0.0 0.0 0.00 0.00 0.00 91 1018.8
20260510063230 52 148 0.0 0.0 0.00 0.00 0.00 91 1019.1
20260510062727 52 151 0.0 0.0 0.00 0.00 0.00 91 1019.2
20260510062223 53 150 0.0 0.0 0.00 0.00 0.00 90 1019.1
20260510061718 53 151 0.0 0.0 0.00 0.00 0.00 90 1019.1
20260510061216 53 145 0.0 0.0 0.00 0.00 0.00 90 1019.0
20260510060712 53 159 0.0 0.0 0.00 0.00 0.00 90 1019.1
20260510060208 53 154 0.0 0.0 0.00 0.00 0.00 90 1018.9
20260510055705 54 153 0.0 0.0 0.00 0.00 0.00 90 1019.1
20260510055203 54 154 0.0 0.0 0.00 0.00 0.00 90 1018.9
20260510054658 54 154 0.0 0.0 0.00 0.00 0.00 89 1018.9
20260510054154 54 154 0.0 0.0 0.00 0.00 0.00 89 1018.9
20260510053654 54 154 0.0 0.0 0.00 0.00 0.00 89 1018.9
20260510053151 54 154 0.0 0.0 0.00 0.00 0.00 89 1019.0
20260510052646 54 153 0.0 0.0 0.00 0.00 0.00 89 1018.9
20260510052142 54 153 0.0 0.0 0.00 0.00 0.00 89 1018.8
20260510051638 54 155 0.0 0.0 0.00 0.00 0.00 88 1018.8
20260510051135 54 155 0.0 0.0 0.00 0.00 0.00 88 1018.8
20260510050632 54 147 0.0 0.0 0.00 0.00 0.00 88 1018.9
20260510050130 55 151 0.0 0.0 0.00 0.00 0.00 88 1018.8
20260510045626 55 151 0.0 0.0 0.00 0.00 0.00 88 1018.8
20260510045123 55 152 0.0 0.0 0.00 0.00 0.00 87 1019.0
20260510044619 55 151 0.0 0.0 0.00 0.00 0.00 87 1018.8
20260510044116 55 151 0.0 0.0 0.00 0.00 0.00 87 1018.9
20260510043612 55 152 0.0 0.0 0.00 0.00 0.00 86 1018.9
20260510043108 55 151 0.0 0.0 0.00 0.00 0.00 86 1018.8
20260510042607 56 152 0.0 0.0 0.00 0.00 0.00 85 1018.8
20260510042102 56 151 0.0 0.0 0.00 0.00 0.00 85 1018.8
20260510041600 56 153 0.0 0.0 0.00 0.00 0.00 84 1018.9
20260510041057 56 153 0.0 0.0 0.00 0.00 0.00 84 1018.7
20260510040554 57 153 0.0 0.0 0.00 0.00 0.00 83 1018.7
20260510040049 57 153 0.0 0.0 0.00 0.00 0.00 82 1018.8
20260510035546 57 158 0.0 0.0 0.00 0.00 0.00 81 1018.6
20260510035045 58 164 0.0 0.0 0.00 0.00 0.00 81 1018.5
20260510034544 58 151 0.0 0.0 0.00 0.00 0.00 80 1018.5
20260510034041 59 151 0.0 0.0 0.00 0.00 0.00 79 1018.6
20260510033536 59 150 0.0 0.0 0.00 0.00 0.00 78 1018.7
20260510033035 59 151 0.0 0.0 0.00 0.00 0.00 78 1018.5
20260510032531 60 150 0.0 0.0 0.00 0.00 0.00 77 1018.4
20260510032026 60 157 0.0 0.0 0.00 0.00 0.00 75 1018.7
20260510031521 60 164 0.0 0.0 0.00 0.00 0.00 75 1018.7
20260510031017 61 162 0.0 0.0 0.00 0.00 0.00 74 1018.9
20260510030513 61 161 0.0 0.0 0.00 0.00 0.00 73 1018.8
20260510030011 62 161 0.0 0.0 0.00 0.00 0.00 72 1018.8
20260510025508 62 159 0.0 0.0 0.00 0.00 0.00 71 1018.8
20260510025005 62 162 0.0 0.0 0.00 0.00 0.00 69 1018.8
20260510024502 63 172 1.0 1.0 0.00 0.00 0.00 68 1018.9
20260510023958 64 164 1.0 1.0 0.00 0.00 0.00 65 1019.0
20260510023448 64 167 0.0 2.0 0.00 0.00 0.00 64 1019.0
20260510022945 66 211 2.0 2.0 0.00 0.00 0.00 63 1019.1
20260510022444 66 202 2.0 3.0 0.00 0.00 0.00 62 1019.2
20260510021943 67 164 1.0 1.0 0.00 0.00 0.00 60 1019.0
20260510021441 68 207 3.0 3.0 0.00 0.00 0.00 56 1019.0
20260510020938 68 157 1.0 1.0 0.00 0.00 0.00 58 1019.1
20260510020432 68 152 1.0 1.0 0.00 0.00 0.00 54 1019.0
20260510015928 68 159 1.0 1.0 0.00 0.00 0.00 54 1019.0
20260510015425 67 151 0.0 0.0 0.00 0.00 0.00 55 1019.4
20260510014919 67 158 0.0 1.0 0.00 0.00 0.00 56 1019.3
20260510014418 67 173 1.0 1.0 0.00 0.00 0.00 56 1019.3
20260510013914 67 173 1.0 3.0 0.00 0.00 0.00 55 1019.4
20260510013409 67 127 2.0 6.0 0.00 0.00 0.00 56 1019.6
20260510012904 67 151 1.0 10.0 0.00 0.00 0.00 54 1019.6
20260510012359 68 200 2.0 2.0 0.00 0.00 0.00 53 1019.7
20260510011854 69 231 2.0 5.0 0.00 0.00 0.00 52 1019.6
20260510011349 71 180 2.0 5.0 0.00 0.00 0.00 50 1019.7
20260510010846 71 192 2.0 3.0 0.00 0.00 0.00 52 1019.8
20260510010344 69 187 1.0 2.0 0.00 0.00 0.00 51 1019.8
20260510005840 69 223 3.0 5.0 0.00 0.00 0.00 51 1019.7
20260510005336 69 218 2.0 2.0 0.00 0.00 0.00 50 1019.9
20260510004834 70 176 2.0 2.0 0.00 0.00 0.00 49 1019.9
20260510004331 69 175 1.0 1.0 0.00 0.00 0.00 51 1020.0
20260510003829 69 190 2.0 3.0 0.00 0.00 0.00 50 1020.1
20260510003326 69 220 3.0 3.0 0.00 0.00 0.00 50 1020.2
20260510002824 69 192 2.0 3.0 0.00 0.00 0.00 49 1019.9
20260510002322 69 217 2.0 5.0 0.00 0.00 0.00 48 1020.2
20260510001818 70 175 2.0 3.0 0.00 0.00 0.00 48 1020.2
20260510001317 70 159 1.0 3.0 0.00 0.00 0.00 48 1020.2
20260510000812 70 129 0.0 2.0 0.00 0.00 0.00 46 1020.3
20260510000311 71 222 3.0 3.0 0.00 0.00 0.00 44 1020.6
20260509235807 70 176 0.0 2.0 0.00 0.00 0.00 44 1020.3
20260509235306 71 160 1.0 2.0 0.00 0.00 0.00 44 1020.4
20260509234754 70 159 0.0 2.0 0.00 0.00 0.00 45 1020.4
20260509234250 71 116 2.0 2.0 0.00 0.00 0.00 43 1020.4
20260509233749 70 157 1.0 1.0 0.00 0.00 0.00 46 1020.6
20260509233246 70 141 2.0 5.0 0.00 0.00 0.00 42 1020.6
20260509232742 71 152 0.0 3.0 0.00 0.00 0.00 42 1020.8
20260509232240 70 151 2.0 3.0 0.00 0.00 0.00 44 1020.7
20260509231736 70 106 1.0 3.0 0.00 0.00 0.00 44 1020.8
20260509231233 69 161 1.0 3.0 0.00 0.00 0.00 45 1020.9
20260509230730 70 344 3.0 5.0 0.00 0.00 0.00 44 1021.1
20260509230227 70 134 1.0 3.0 0.00 0.00 0.00 45 1021.0
20260509225722 70 140 1.0 2.0 0.00 0.00 0.00 48 1021.2
20260509225219 69 201 3.0 3.0 0.00 0.00 0.00 47 1021.3
20260509224714 69 235 4.0 7.0 0.00 0.00 0.00 45 1021.2
20260509224211 68 142 3.0 5.0 0.00 0.00 0.00 47 1021.4
20260509223708 69 250 2.0 5.0 0.00 0.00 0.00 48 1021.7
20260509223205 69 270 2.0 6.0 0.00 0.00 0.00 47 1021.7
20260509222702 69 72 3.0 6.0 0.00 0.00 0.00 46 1021.4
20260509222157 68 228 10.0 13.0 0.00 0.00 0.00 46 1021.6
20260509221648 68 191 4.0 7.0 0.00 0.00 0.00 47 1021.6
20260509221144 68 251 5.0 6.0 0.00 0.00 0.00 47 1021.8
20260509220640 68 268 2.0 5.0 0.00 0.00 0.00 47 1021.6
20260509220136 69 175 4.0 6.0 0.00 0.00 0.00 47 1021.7
20260509215633 68 190 3.0 6.0 0.00 0.00 0.00 47 1021.8
20260509215129 68 172 2.0 3.0 0.00 0.00 0.00 50 1021.8
20260509214626 68 141 1.0 6.0 0.00 0.00 0.00 51 1021.9
20260509214117 69 150 1.0 3.0 0.00 0.00 0.00 50 1021.8
20260509213613 68 156 0.0 2.0 0.00 0.00 0.00 53 1021.9
20260509213109 68 62 4.0 9.0 0.00 0.00 0.00 52 1021.8
20260509212607 68 235 5.0 6.0 0.00 0.00 0.00 52 1022.0
20260509212058 68 216 3.0 3.0 0.00 0.00 0.00 53 1021.8
20260509211554 67 209 3.0 6.0 0.00 0.00 0.00 54 1021.9
20260509211051 67 349 3.0 6.0 0.00 0.00 0.00 54 1021.9
20260509210547 68 76 4.0 6.0 0.00 0.00 0.00 54 1022.1
20260509210044 67 151 3.0 6.0 0.00 0.00 0.00 55 1022.1
20260509205538 68 214 3.0 6.0 0.00 0.00 0.00 54 1022.1
20260509205034 68 173 2.0 2.0 0.00 0.00 0.00 54 1022.3
20260509204530 67 180 1.0 3.0 0.00 0.00 0.00 55 1022.1
20260509204027 67 253 3.0 6.0 0.00 0.00 0.00 56 1022.0
20260509203522 67 252 3.0 3.0 0.00 0.00 0.00 57 1022.3
20260509203021 67 212 3.0 6.0 0.00 0.00 0.00 57 1022.2
20260509202515 68 237 3.0 6.0 0.00 0.00 0.00 56 1022.2
20260509202011 67 258 6.0 7.0 0.00 0.00 0.00 57 1022.4
20260509201506 67 173 3.0 5.0 0.00 0.00 0.00 57 1022.5
20260509201004 66 70 1.0 7.0 0.00 0.00 0.00 59 1022.4
20260509200503 65 0 2.0 6.0 0.00 0.00 0.00 61 1022.7
20260509200000 65 206 3.0 6.0 0.00 0.00 0.00 61 1022.7
20260509195455 66 238 6.0 7.0 0.00 0.00 0.00 59 1022.9
20260509194955 65 163 2.0 3.0 0.00 0.00 0.00 60 1022.7
20260509194451 65 207 2.0 7.0 0.00 0.00 0.00 60 1023.0
20260509193948 64 87 1.0 3.0 0.00 0.00 0.00 63 1023.2
20260509193448 64 342 4.0 7.0 0.00 0.00 0.00 62 1022.9
20260509192944 64 243 4.0 6.0 0.00 0.00 0.00 61 1023.2
20260509192441 65 299 4.0 6.0 0.00 0.00 0.00 62 1023.1
20260509191936 64 226 4.0 7.0 0.00 0.00 0.00 62 1023.2
20260509191432 65 18 5.0 7.0 0.00 0.00 0.00 62 1023.4
20260509190928 65 201 1.0 7.0 0.00 0.00 0.00 61 1023.4
20260509190425 65 216 4.0 6.0 0.00 0.00 0.00 61 1023.5
20260509185923 65 1 3.0 8.0 0.00 0.00 0.00 62 1023.4
20260509185420 65 149 2.0 5.0 0.00 0.00 0.00 61 1023.5
20260509184917 65 127 2.0 6.0 0.00 0.00 0.00 62 1023.6
20260509184414 64 167 1.0 2.0 0.00 0.00 0.00 63 1023.5
20260509183911 64 254 4.0 6.0 0.00 0.00 0.00 63 1023.6
20260509183405 64 136 1.0 6.0 0.00 0.00 0.00 64 1023.6